St. Joseph, KS

11:32 AM CST on November 22, 2019 (GMT -0600)
Rosecrans Memorial

Weather History for KSTJ - September, 2019

Change the Weather History Date:

Tuesday, September 10, 2019

  Actual Average Record
Temperature  
Mean Temperature 81 °F 69 °F  
Max Temperature 87 °F 81 °F 99 °F (1936)
Min Temperature 74 °F 56 °F 35 °F (1976)
Degree Days  
Heating Degree Days 0 1  
Month to date heating degree days 0 8  
Since 1 July heating degree days 0 13  
Cooling Degree Days 16 5  
Month to date cooling degree days 109 60  
Year to date cooling degree days 1253 1137  
Growing Degree Days 31 (Base 50)    
Moisture  
Dew Point 69 °F    
Average Humidity 71    
Maximum Humidity 82    
Minimum Humidity 59    
Precipitation  
Precipitation 0.00 in 0.11 in 4.94 in (1986)
Month to date precipitation 1.47 1.39  
Year to date precipitation 30.74 27.69  
Sea Level Pressure  
Sea Level Pressure 29.97 in    
Wind  
Wind Speed 8 mph (South)    
Max Wind Speed 17 mph    
Max Gust Speed 23 mph    
Visibility 10 miles    
Events      
T = Trace of Precipitation, MM = Missing Value Source: NWS Daily Summary

Daily Weather History Graph

Daily Weather History Graph

Search for Another Location

Airport or City:

Astronomy

Sep. 10, 2019 Rise Set
Actual Time 6:55 AM CDT 7:36 PM CDT
Civil Twilight 6:28 AM CDT 8:03 PM CDT
Nautical Twilight 5:56 AM CDT 8:36 PM CDT
Astronomical Twilight 5:23 AM CDT 9:09 PM CDT
Moon 6:13 PM CDT (9/10) 3:23 AM CDT (9/10)
Length of Visible Light 13h 35m
Length of Day
12h 40m
Waxing Gibbous, 89% of the Moon is Illuminated
Sep 10
Waxing Gibbous
Sep 13
Full
Sep 21
Last Quarter
Sep 28
New
Oct 5
First Quarter

Hourly Weather History & Observations

Time (CDT) Temp. Heat Index Dew Point Humidity Pressure Visibility Wind Dir Wind Speed Gust Speed Precip Events Conditions
12:53 AM 79.0 °F - 66.9 °F 66% 29.92 in 10.0 mi South 10.4 mph - N/A   Clear
1:53 AM 78.1 °F - 66.9 °F 68% 29.93 in 10.0 mi South 9.2 mph - N/A   Clear
2:53 AM 77.0 °F - 66.9 °F 71% 29.93 in 10.0 mi South 8.1 mph - N/A   Mostly Cloudy
3:53 AM 75.0 °F - 66.9 °F 76% 29.92 in 10.0 mi South 8.1 mph - N/A   Clear
4:53 AM 75.0 °F - 66.9 °F 76% 29.92 in 10.0 mi South 9.2 mph - N/A   Clear
5:53 AM 75.0 °F - 66.9 °F 76% 29.93 in 10.0 mi South 9.2 mph - N/A   Mostly Cloudy
6:53 AM 75.0 °F - 66.0 °F 73% 29.95 in 10.0 mi South 9.2 mph - N/A   Scattered Clouds
7:53 AM 75.9 °F - 66.0 °F 71% 29.97 in 10.0 mi South 12.7 mph - N/A   Partly Cloudy
8:53 AM 77.0 °F - 66.0 °F 69% 29.98 in 10.0 mi SSW 8.1 mph - N/A   Scattered Clouds
9:53 AM 78.1 °F - 66.9 °F 68% 29.99 in 10.0 mi South 9.2 mph - N/A   Scattered Clouds
10:53 AM 80.1 °F 82.7 °F 68.0 °F 67% 30.01 in 10.0 mi Calm Calm - N/A   Mostly Cloudy
11:53 AM 84.9 °F 88.8 °F 69.1 °F 59% 30.01 in 10.0 mi Calm Calm - N/A   Scattered Clouds
12:53 PM 86.0 °F 91.5 °F 71.1 °F 61% 29.99 in 10.0 mi South 6.9 mph - N/A   Partly Cloudy
1:53 PM 87.1 °F 92.8 °F 71.1 °F 59% 30.00 in 10.0 mi South 9.2 mph - N/A   Clear
2:53 PM 86.0 °F 92.2 °F 72.0 °F 63% 29.99 in 10.0 mi SSE 13.8 mph 19.6 mph N/A   Clear
3:53 PM 82.9 °F 87.5 °F 71.1 °F 67% 29.98 in 10.0 mi South 9.2 mph - N/A   Clear
4:53 PM 82.9 °F 88.0 °F 72.0 °F 69% 29.98 in 10.0 mi SSE 5.8 mph - N/A   Clear
5:53 PM 82.0 °F 86.7 °F 72.0 °F 71% 29.97 in 10.0 mi SSE 5.8 mph - N/A   Clear
6:53 PM 81.0 °F 85.8 °F 73.0 °F 77% 29.97 in 10.0 mi SSE 4.6 mph - N/A   Clear
7:53 PM 80.1 °F 83.8 °F 72.0 °F 76% 29.96 in 10.0 mi SSE 6.9 mph - N/A   Mostly Cloudy
8:53 PM 79.0 °F - 72.0 °F 79% 29.97 in 10.0 mi South 8.1 mph - N/A   Clear
9:53 PM 79.0 °F - 71.1 °F 77% 29.98 in 10.0 mi South 9.2 mph - N/A   Clear
10:53 PM 78.1 °F - 69.1 °F 74% 29.98 in 10.0 mi South 11.5 mph - N/A   Clear
11:53 PM 75.9 °F - 69.1 °F 79% 30.00 in 10.0 mi South 6.9 mph - N/A   Clear